Tracking 20942 objects as of 15-Jul-2020
HD Live streaming from Space Station
objects crossing your sky now

BREEZE-M DEB (TANK)

Track BREEZE-M DEB (TANK) now!


NORAD ID: 38979
Int'l Code: 2012-061C
Perigee: 713.9 km
Apogee: 35,337.8 km
Inclination: 48.3 °
Period: 632.1 minutes
Semi major axis: 24396 km
RCS: 7.6752 m2 (large)
Launch date: November 2, 2012
Source: Commonwealth of Independent States (former USSR) (CIS)
Launch site: TYURATAM MISSILE AND SPACE COMPLEX (TTMTR)

Note: This is SATELLITE DEBRIS
aabbcc
Your satellite tracking list
Your tracking list is empty




NASA's NSSDC Master Catalog

Two Line Element Set (TLE):
1 38979U 12061C   20196.39209574 -.00000284  00000-0 -89553-3 0  9992
2 38979  48.3284 353.5062 7095979 314.2910   5.8779  2.27825661 63630
Source of the keplerian elements: AFSPC